DLH1MA EDDS-EDDM

Flight info

Callsign DLH1MA
Flight time 0h 40m
Altitude 17000
Route ABTAL4H ABTAL L173 RIXED Y161 RIDAR Z98 WLD T104 ROKIL ROKIL1A
Aircraft A319/M-SDE3FGHIRWY/LB1

Departure

Time 2026-04-30 19:36
Airport Stuttgart Airport (EDDS)

Arrival

Time 2026-04-30 20:17
Airport Munich Airport (EDDM)
Time Latitude Longitude Altitude Speed Heading
2026-04-30 19:22 48.68944 9.19644 1315 ft 0 kts 344°
2026-04-30 19:30 48.68935 9.19648 1314 ft 4 kts 344°
2026-04-30 19:31 48.68888 9.19668 1310 ft 4 kts 352°
2026-04-30 19:31 48.68866 9.19662 1309 ft 4 kts 47°
2026-04-30 19:31 48.68855 9.19634 1309 ft 1 kts 74°
2026-04-30 19:32 48.68854 9.19634 1309 ft 0 kts 74°
2026-04-30 19:33 48.68855 9.19636 1309 ft 1 kts 74°
2026-04-30 19:33 48.68867 9.19701 1308 ft 11 kts 74°
2026-04-30 19:33 48.68889 9.19829 1304 ft 14 kts 86°
2026-04-30 19:34 48.68805 9.19928 1296 ft 19 kts 147°
2026-04-30 19:34 48.68719 9.19973 1291 ft 8 kts 165°
2026-04-30 19:34 48.68664 9.19994 1287 ft 0 kts 165°
2026-04-30 19:35 48.68661 9.19996 1287 ft 2 kts 165°
2026-04-30 19:35 48.68619 9.20038 1284 ft 13 kts 128°
2026-04-30 19:35 48.68611 9.20205 1280 ft 21 kts 76°
2026-04-30 19:35 48.68705 9.20696 1274 ft 88 kts 74°
2026-04-30 19:36 48.68940 9.21920 1262 ft 152 kts 74°
2026-04-30 19:36 48.69224 9.23528 1830 ft 159 kts 76°
2026-04-30 19:36 48.69844 9.26881 3045 ft 183 kts 77°
2026-04-30 19:37 48.70220 9.28846 3511 ft 206 kts 77°
2026-04-30 19:37 48.70627 9.30960 4254 ft 216 kts 77°
2026-04-30 19:37 48.71060 9.33189 4855 ft 226 kts 77°
2026-04-30 19:37 48.71504 9.35478 4987 ft 226 kts 77°
2026-04-30 19:38 48.71949 9.37827 5394 ft 239 kts 76°
2026-04-30 19:38 48.72418 9.40321 6193 ft 251 kts 76°
2026-04-30 19:38 48.72904 9.42910 7124 ft 259 kts 76°
2026-04-30 19:38 48.73402 9.45557 8077 ft 264 kts 75°
2026-04-30 19:39 48.73911 9.48256 9047 ft 268 kts 75°
2026-04-30 19:39 48.74427 9.50999 10011 ft 272 kts 75°
2026-04-30 19:39 48.74947 9.53768 10685 ft 287 kts 75°
2026-04-30 19:39 48.75512 9.56794 11058 ft 309 kts 75°
2026-04-30 19:40 48.76106 9.59979 11766 ft 317 kts 74°
2026-04-30 19:40 48.76712 9.63217 12619 ft 321 kts 74°
2026-04-30 19:40 48.77322 9.66476 13533 ft 323 kts 74°
2026-04-30 19:40 48.77930 9.69775 14365 ft 326 kts 75°
2026-04-30 19:41 48.78115 9.73223 15076 ft 333 kts 94°
2026-04-30 19:41 48.77516 9.76645 15794 ft 340 kts 107°
2026-04-30 19:41 48.76703 9.80035 16521 ft 344 kts 107°
2026-04-30 19:41 48.75873 9.83456 17120 ft 348 kts 107°
2026-04-30 19:42 48.75042 9.86864 17297 ft 349 kts 107°
2026-04-30 19:42 48.74206 9.90277 17329 ft 341 kts 107°
2026-04-30 19:42 48.73383 9.93646 17335 ft 339 kts 107°
2026-04-30 19:42 48.72569 9.96987 17325 ft 338 kts 107°
2026-04-30 19:43 48.71760 10.00302 17343 ft 338 kts 107°
2026-04-30 19:43 48.70941 10.03651 17345 ft 338 kts 107°
2026-04-30 19:43 48.70126 10.06993 17351 ft 338 kts 107°
2026-04-30 19:44 48.68499 10.13657 17361 ft 337 kts 107°
2026-04-30 19:44 48.67688 10.16976 17361 ft 337 kts 107°
2026-04-30 19:44 48.66872 10.20305 17359 ft 337 kts 107°
2026-04-30 19:44 48.66053 10.23625 17363 ft 337 kts 107°
2026-04-30 19:45 48.65234 10.26944 17359 ft 337 kts 107°
2026-04-30 19:45 48.64424 10.30227 17364 ft 337 kts 107°
2026-04-30 19:45 48.63602 10.33555 17368 ft 337 kts 107°
2026-04-30 19:45 48.62784 10.36871 17366 ft 337 kts 107°
2026-04-30 19:46 48.61962 10.40194 17371 ft 337 kts 107°
2026-04-30 19:46 48.61139 10.43512 17367 ft 337 kts 107°
2026-04-30 19:46 48.60315 10.46824 17384 ft 337 kts 106°
2026-04-30 19:46 48.59490 10.50137 17382 ft 337 kts 106°
2026-04-30 19:47 48.58667 10.53444 17379 ft 337 kts 106°
2026-04-30 19:47 48.58119 10.55641 17377 ft 337 kts 106°
2026-04-30 19:47 48.57012 10.60069 17297 ft 336 kts 107°
2026-04-30 19:47 48.56183 10.63381 16742 ft 336 kts 107°
2026-04-30 19:48 48.55359 10.66667 16325 ft 333 kts 107°
2026-04-30 19:48 48.54554 10.69869 15930 ft 329 kts 107°
2026-04-30 19:48 48.53744 10.73093 15525 ft 326 kts 107°
2026-04-30 19:48 48.52941 10.76282 15123 ft 324 kts 107°
2026-04-30 19:49 48.52142 10.79445 14724 ft 321 kts 107°
2026-04-30 19:49 48.50562 10.85691 13892 ft 317 kts 108°
2026-04-30 19:49 48.49780 10.88776 13487 ft 313 kts 107°
2026-04-30 19:50 48.49006 10.91831 13086 ft 310 kts 108°
2026-04-30 19:50 48.48239 10.94851 12698 ft 306 kts 108°
2026-04-30 19:50 48.47480 10.97835 12298 ft 303 kts 108°
2026-04-30 19:50 48.46738 11.00748 11908 ft 300 kts 108°
2026-04-30 19:51 48.45983 11.03713 11495 ft 298 kts 108°
2026-04-30 19:51 48.45254 11.06572 11114 ft 294 kts 108°
2026-04-30 19:51 48.44530 11.09405 10727 ft 287 kts 108°
2026-04-30 19:51 48.43821 11.12179 10338 ft 280 kts 109°
2026-04-30 19:52 48.43118 11.14921 9928 ft 274 kts 109°
2026-04-30 19:52 48.42441 11.17562 9512 ft 273 kts 109°
2026-04-30 19:52 48.41755 11.20236 9094 ft 272 kts 109°
2026-04-30 19:52 48.41075 11.22886 8682 ft 270 kts 109°
2026-04-30 19:53 48.40399 11.25510 8270 ft 266 kts 109°
2026-04-30 19:53 48.39733 11.28093 7870 ft 261 kts 109°
2026-04-30 19:53 48.39087 11.30598 7470 ft 251 kts 110°
2026-04-30 19:53 48.38466 11.33001 7083 ft 242 kts 110°
2026-04-30 19:54 48.37870 11.35300 6697 ft 234 kts 110°
2026-04-30 19:54 48.37284 11.37557 6280 ft 227 kts 110°
2026-04-30 19:54 48.36716 11.39748 5870 ft 222 kts 109°
2026-04-30 19:54 48.36160 11.41889 5469 ft 217 kts 109°
2026-04-30 19:55 48.35617 11.43973 5203 ft 209 kts 109°
2026-04-30 19:55 48.35103 11.45942 5108 ft 195 kts 109°
2026-04-30 19:55 48.34624 11.47777 5018 ft 182 kts 109°
2026-04-30 19:55 48.34293 11.49539 4987 ft 172 kts 93°
2026-04-30 19:56 48.34324 11.51307 4856 ft 171 kts 86°
2026-04-30 19:56 48.34432 11.53081 4651 ft 169 kts 85°
2026-04-30 19:56 48.34560 11.54829 4470 ft 166 kts 84°
2026-04-30 19:56 48.34691 11.56527 4230 ft 161 kts 84°
2026-04-30 19:57 48.34821 11.58176 4005 ft 156 kts 85°
2026-04-30 19:57 48.34946 11.59769 3798 ft 151 kts 85°
2026-04-30 19:57 48.35065 11.61279 3607 ft 137 kts 84°
2026-04-30 19:57 48.35174 11.62653 3424 ft 128 kts 85°
2026-04-30 19:58 48.35257 11.63716 3283 ft 126 kts 85°
2026-04-30 19:58 48.35359 11.65017 3112 ft 125 kts 85°
2026-04-30 19:58 48.35461 11.66311 2940 ft 124 kts 85°
2026-04-30 19:58 48.35561 11.67596 2774 ft 124 kts 85°
2026-04-30 19:59 48.35736 11.68926 2995 ft 132 kts 70°
2026-04-30 19:59 48.36332 11.69948 3541 ft 136 kts 37°
2026-04-30 19:59 48.38339 11.69705 4721 ft 151 kts 355°
2026-04-30 20:00 48.39390 11.69318 4992 ft 156 kts 355°
2026-04-30 20:00 48.40426 11.68930 5003 ft 155 kts 354°
2026-04-30 20:00 48.41606 11.68511 5003 ft 195 kts 354°
2026-04-30 20:00 48.42994 11.68067 5012 ft 214 kts 354°
2026-04-30 20:01 48.45974 11.67153 5013 ft 230 kts 354°
2026-04-30 20:01 48.47607 11.66666 5010 ft 246 kts 354°
2026-04-30 20:01 48.49300 11.66172 4998 ft 248 kts 354°
2026-04-30 20:02 48.52706 11.65217 5005 ft 249 kts 354°
2026-04-30 20:02 48.54408 11.64750 5005 ft 248 kts 354°
2026-04-30 20:03 48.57697 11.63849 5006 ft 238 kts 354°
2026-04-30 20:03 48.59325 11.63395 5009 ft 238 kts 354°
2026-04-30 20:03 48.60957 11.62929 5010 ft 238 kts 354°
2026-04-30 20:03 48.62589 11.62463 5008 ft 238 kts 354°
2026-04-30 20:04 48.64217 11.61998 5012 ft 238 kts 354°
2026-04-30 20:04 48.65844 11.61543 5010 ft 238 kts 354°
2026-04-30 20:04 48.67471 11.61076 5012 ft 239 kts 352°
2026-04-30 20:05 48.69865 11.57694 5013 ft 254 kts 287°
2026-04-30 20:05 48.69925 11.55041 5011 ft 254 kts 254°
2026-04-30 20:05 48.67736 11.51218 5009 ft 244 kts 206°
2026-04-30 20:06 48.66769 11.50352 5009 ft 243 kts 205°
2026-04-30 20:06 48.65296 11.49082 5007 ft 243 kts 204°
2026-04-30 20:06 48.63770 11.48023 5012 ft 238 kts 189°
2026-04-30 20:06 48.62153 11.47496 5011 ft 236 kts 185°
2026-04-30 20:07 48.60553 11.47055 5010 ft 237 kts 185°
2026-04-30 20:07 48.58930 11.46627 5008 ft 237 kts 184°
2026-04-30 20:07 48.55685 11.45783 4800 ft 234 kts 184°
2026-04-30 20:08 48.54079 11.45359 4449 ft 233 kts 184°
2026-04-30 20:08 48.52484 11.44931 4115 ft 233 kts 184°
2026-04-30 20:08 48.50901 11.44499 3994 ft 231 kts 184°
2026-04-30 20:08 48.49329 11.44045 3998 ft 233 kts 182°
2026-04-30 20:09 48.47729 11.43861 4002 ft 230 kts 175°
2026-04-30 20:09 48.46130 11.43792 3998 ft 229 kts 174°
2026-04-30 20:09 48.42952 11.43680 3999 ft 228 kts 174°
2026-04-30 20:10 48.39769 11.43589 3999 ft 229 kts 174°
2026-04-30 20:10 48.38201 11.43615 3998 ft 225 kts 165°
2026-04-30 20:10 48.36851 11.44551 4002 ft 211 kts 132°
2026-04-30 20:11 48.35426 11.47961 3997 ft 178 kts 114°
2026-04-30 20:11 48.34856 11.49560 4002 ft 171 kts 114°
2026-04-30 20:11 48.34392 11.51170 4005 ft 166 kts 99°
2026-04-30 20:12 48.34526 11.54504 4018 ft 148 kts 84°
2026-04-30 20:12 48.34644 11.55968 4004 ft 134 kts 85°
2026-04-30 20:12 48.34751 11.57317 3988 ft 128 kts 85°
2026-04-30 20:13 48.34855 11.58632 3893 ft 126 kts 84°
2026-04-30 20:13 48.34958 11.59932 3756 ft 125 kts 84°
2026-04-30 20:13 48.35060 11.61224 3603 ft 124 kts 84°
2026-04-30 20:13 48.35161 11.62510 3444 ft 124 kts 84°
2026-04-30 20:14 48.35263 11.63796 3269 ft 124 kts 85°
2026-04-30 20:14 48.35364 11.65084 3101 ft 123 kts 84°
2026-04-30 20:14 48.35464 11.66359 2931 ft 124 kts 85°
2026-04-30 20:14 48.35559 11.67643 2766 ft 123 kts 85°
2026-04-30 20:15 48.35654 11.68927 2581 ft 124 kts 84°
2026-04-30 20:15 48.35764 11.70209 2285 ft 127 kts 83°
2026-04-30 20:15 48.35871 11.71540 2063 ft 125 kts 84°
2026-04-30 20:15 48.35974 11.72818 1988 ft 124 kts 83°
2026-04-30 20:16 48.36073 11.74120 1865 ft 126 kts 84°
2026-04-30 20:16 48.36178 11.75417 1703 ft 125 kts 83°
2026-04-30 20:16 48.36278 11.76706 1539 ft 124 kts 84°
2026-04-30 20:16 48.36370 11.77954 1464 ft 113 kts 84°
2026-04-30 20:17 48.36412 11.78685 1466 ft 36 kts 98°
2026-04-30 20:17 48.36329 11.79003 1467 ft 31 kts 114°
2026-04-30 20:17 48.36263 11.79223 1468 ft 15 kts 115°
2026-04-30 20:17 48.36175 11.79303 1461 ft 16 kts 173°
2026-04-30 20:18 48.36060 11.79323 1464 ft 17 kts 173°
2026-04-30 20:18 48.35937 11.79345 1467 ft 18 kts 173°
2026-04-30 20:18 48.35820 11.79391 1464 ft 18 kts 173°
2026-04-30 20:18 48.35786 11.79335 1467 ft 8 kts 262°
2026-04-30 20:19 48.35779 11.79249 1467 ft 8 kts 262°
2026-04-30 20:19 48.35779 11.79244 1465 ft 0 kts 263°